Wind_Speed
46 45 44 43 42 40 38 36 34 32 31 30 29 27 26 25 24 24 24 23 24 25 26 28 29 29 30 32 33 34 35 36 36 37 38 39 39 39
51 49 48 47 45 43 41 38 36 34 31 31 30 28 27 25 24 24 24 23 24 25 25 26 27 28 30 30 30 31 32 33 35 36 37 38 39 39
56 55 53 51 49 47 45 42 39 36 33 31 31 29 28 26 25 24 24 23 23 24 24 25 26 27 29 29 29 29 29 30 31 33 35 36 36 37
62 60 58 56 53 50 48 45 42 39 36 33 32 31 29 27 26 24 24 23 23 23 24 25 26 27 28 28 29 28 28 28 29 30 31 33 33 34
67 65 62 61 58 55 52 49 45 42 38 35 33 32 30 28 26 25 24 23 23 23 24 24 25 26 27 27 28 28 28 28 28 29 29 30 31 33
71 69 66 63 60 58 55 52 48 45 41 37 35 33 31 29 27 26 24 23 23 23 23 24 25 27 28 28 28 28 28 27 27 28 28 30 31 31
73 72 69 66 62 59 56 53 50 47 43 39 36 34 31 29 28 26 25 24 23 23 23 24 25 26 27 27 28 28 28 28 27 28 29 29 30 31
69 71 70 68 64 61 57 54 51 48 44 41 38 35 32 30 28 26 25 23 23 22 23 24 25 26 26 27 27 28 28 28 28 28 28 28 29 30
59 64 67 68 65 62 59 55 51 48 45 42 39 36 33 30 28 26 25 23 22 22 22 23 24 25 26 26 27 28 27 27 27 27 27 27 27 29
46 53 58 61 62 61 59 55 52 48 44 42 39 37 34 31 28 26 25 24 22 21 22 23 23 24 26 26 26 25 25 25 25 24 25 25 26 26
36 42 48 52 55 58 57 54 51 48 45 42 39 36 34 31 28 26 24 23 22 22 22 22 23 23 23 23 24 24 24 23 23 23 23 23 23 23
31 34 39 44 48 51 53 53 50 48 45 42 39 36 33 31 28 26 24 23 22 22 22 22 22 22 21 21 21 22 21 21 21 20 20 20 20 20
29 30 34 38 42 46 48 49 49 47 45 42 39 36 33 30 28 25 23 22 22 22 21 21 21 21 21 20 20 20 20 20 19 18 18 18 17 17
26 28 30 34 39 43 45 46 47 46 44 42 39 36 32 30 27 25 24 22 22 22 21 20 19 19 19 19 19 19 19 18 18 17 17 16 15 14
26 26 28 32 38 41 42 43 45 45 43 41 39 36 33 30 28 25 24 23 22 21 20 19 18 18 18 17 17 17 16 16 16 15 15 14 13 13
24 24 25 29 35 40 42 42 43 43 42 40 37 35 33 30 28 26 25 23 22 21 19 19 18 18 17 16 16 16 15 15 14 14 14 13 13 13
23 24 24 29 34 39 42 42 42 42 41 39 37 35 33 30 28 26 24 22 22 20 20 19 18 18 18 17 16 16 16 15 15 14 14 14 13 13
22 22 24 28 36 40 42 42 43 42 40 37 35 34 32 30 28 26 25 23 21 20 19 19 18 18 18 17 17 16 16 15 15 14 14 14 14 14
20 22 24 30 37 39 41 43 42 41 39 36 34 32 31 29 28 26 25 23 22 20 20 19 19 18 18 18 17 17 16 16 15 15 15 15 16 17
18 21 25 33 38 39 41 43 42 40 38 35 33 32 30 28 27 26 25 23 22 21 20 20 19 19 18 18 18 18 17 17 16 16 17 18 19 21
17 22 28 34 38 40 42 41 41 38 35 33 32 31 29 28 26 25 24 22 22 21 20 20 20 19 19 19 18 18 18 18 18 19 20 21 22 24
18 25 31 36 38 40 41 40 38 36 34 32 31 30 28 27 25 24 23 22 21 21 20 20 20 20 20 19 19 19 19 20 21 22 23 25 26 28
23 29 33 36 38 39 39 38 36 34 33 31 30 28 27 26 25 24 23 22 21 20 20 20 20 20 19 20 20 20 21 23 24 25 27 29 30 31
Wind_Direction
244 244 244 243 243 244 245 247 250 254 260 265 268 270 273 277 281 284 285 284 276 268 263 258 253 248 245 244 243 242 240 240 241 241 242 241 242 242
244 244 244 243 243 244 244 245 247 250 255 260 264 268 271 275 279 282 284 283 277 268 262 256 251 248 243 242 242 241 240 240 240 241 242 242 242 243
242 242 243 242 242 243 244 244 246 247 250 254 260 264 269 274 277 281 283 282 278 269 262 254 249 248 243 242 241 240 240 240 241 240 240 240 241 243
240 240 241 241 241 242 242 243 244 245 247 249 255 260 266 270 274 279 282 282 278 269 261 255 250 246 243 242 240 240 240 241 241 239 238 238 239 240
239 239 239 239 240 240 241 242 243 244 245 247 250 256 261 266 270 274 278 279 276 269 261 256 249 244 241 241 241 241 242 243 243 241 240 240 241 242
238 238 238 238 238 239 239 240 241 242 244 245 247 251 256 261 265 269 272 275 273 267 260 255 249 244 243 242 241 242 245 245 245 244 243 243 244 244
239 238 237 237 236 236 237 238 239 239 241 243 245 248 252 257 260 264 267 271 270 265 259 254 248 245 244 243 243 245 246 246 246 245 245 245 246 246
241 239 237 236 236 235 235 235 236 237 238 240 242 244 248 252 255 259 263 266 265 262 256 252 248 246 244 243 245 247 247 247 247 248 249 248 247 247
243 240 238 236 235 234 233 232 233 233 234 236 237 240 244 247 251 254 257 260 259 257 254 252 249 245 245 244 245 247 248 248 249 250 249 249 249 249
245 241 238 236 234 233 231 230 230 230 230 231 233 235 239 243 246 250 252 254 253 253 251 248 247 246 245 246 247 248 248 248 247 247 248 249 249 249
245 241 238 234 232 231 229 227 226 226 226 227 229 232 234 239 242 245 247 248 247 248 248 246 246 245 245 244 245 246 246 246 246 246 246 245 245 246
243 239 234 231 229 227 226 224 223 222 223 224 226 228 230 233 236 239 242 242 243 245 245 243 242 242 241 242 243 243 242 242 241 241 241 241 243 244
241 236 231 227 224 222 221 220 219 219 219 221 222 223 225 228 230 232 235 236 237 240 240 239 238 238 238 237 237 238 237 236 237 237 236 236 236 237
237 233 228 222 218 215 215 215 215 215 216 218 219 220 221 223 224 227 229 231 232 234 236 235 234 233 232 231 232 233 233 230 230 230 230 229 228 228
233 229 223 218 213 209 208 210 210 210 211 214 215 216 217 218 219 222 222 224 227 229 231 229 229 230 227 226 225 224 224 223 222 223 222 221 221 222
227 222 218 210 206 203 201 203 204 205 207 208 210 212 212 214 215 216 218 222 223 224 224 224 225 223 221 220 219 218 218 216 215 212 214 217 219 222
222 217 213 206 200 193 193 197 198 200 202 204 206 208 209 210 211 214 217 218 218 219 221 221 219 218 219 218 216 215 215 213 210 210 214 219 223 228
216 214 207 200 193 187 187 191 193 195 197 200 201 203 204 206 208 210 212 213 214 216 217 215 214 214 212 211 210 209 208 209 212 217 222 227 234 241
215 209 197 193 187 183 184 184 185 190 193 195 197 200 201 203 205 206 208 208 209 210 210 210 209 207 204 205 205 207 210 213 218 225 232 238 245 252
207 201 190 184 180 177 177 178 181 185 187 190 193 195 198 199 200 202 204 205 205 206 206 207 205 204 204 206 209 212 216 221 228 236 244 250 256 262
190 185 180 176 174 174 174 176 179 182 185 188 191 193 196 197 198 199 200 200 202 203 203 203 202 205 208 211 215 219 226 233 241 249 255 261 265 270
174 171 171 169 168 170 172 174 176 179 183 185 188 191 192 193 195 196 197 197 199 201 202 204 206 210 214 218 224 231 238 245 252 258 263 268 272 275
156 158 163 164 164 166 169 172 176 179 181 183 185 188 189 191 194 195 196 197 198 202 205 208 212 216 222 229 236 243 250 255 261 265 269 273 275 277
Height
5749 5752 5756 5759 5763 5767 5771 5774 5778 5780 5781 5781 5782 5784 5784 5783 5782 5781 5780 5779 5779 5779 5780 5781 5783 5785 5788 5791 5794 5797 5800 5804 5807 5811 5814 5818 5822 5826
5735 5739 5742 5746 5751 5755 5760 5764 5767 5771 5773 5773 5774 5775 5776 5776 5775 5774 5773 5773 5772 5772 5773 5774 5776 5778 5781 5784 5786 5789 5792 5795 5799 5802 5806 5810 5813 5817
5719 5724 5728 5733 5737 5742 5747 5752 5756 5760 5764 5765 5766 5767 5768 5769 5768 5767 5767 5766 5766 5766 5767 5768 5770 5772 5774 5777 5779 5782 5785 5788 5791 5794 5797 5801 5805 5809
5702 5707 5713 5718 5723 5728 5734 5739 5744 5749 5753 5756 5758 5759 5760 5761 5761 5761 5760 5760 5759 5759 5760 5761 5763 5765 5768 5771 5773 5776 5779 5781 5784 5787 5790 5794 5797 5801
5682 5689 5695 5702 5708 5714 5720 5726 5731 5737 5742 5746 5749 5750 5752 5753 5754 5754 5754 5753 5753 5753 5754 5755 5757 5759 5762 5765 5768 5770 5773 5775 5778 5780 5783 5786 5790 5793
5662 5670 5677 5685 5692 5699 5705 5712 5718 5725 5731 5736 5739 5742 5744 5745 5746 5747 5747 5747 5747 5747 5748 5749 5751 5753 5756 5759 5762 5764 5767 5769 5771 5774 5776 5779 5782 5785
5641 5649 5658 5667 5675 5683 5691 5698 5705 5712 5719 5725 5729 5733 5735 5737 5739 5740 5740 5740 5740 5741 5742 5743 5745 5747 5750 5752 5755 5758 5760 5762 5765 5767 5770 5772 5775 5777
5621 5629 5639 5649 5658 5667 5676 5684 5692 5700 5707 5714 5719 5723 5727 5729 5731 5732 5733 5734 5734 5735 5736 5737 5739 5741 5744 5746 5749 5751 5754 5756 5758 5760 5762 5764 5767 5769
5603 5611 5620 5630 5641 5651 5661 5670 5679 5687 5696 5703 5709 5714 5717 5720 5723 5725 5726 5727 5728 5729 5730 5731 5733 5735 5738 5740 5742 5745 5747 5749 5751 5753 5755 5757 5759 5762
5589 5595 5603 5613 5624 5635 5646 5657 5667 5676 5684 5692 5699 5704 5708 5712 5715 5717 5719 5720 5722 5723 5725 5726 5728 5730 5732 5734 5736 5739 5741 5743 5745 5747 5749 5751 5753 5755
5577 5582 5589 5599 5610 5621 5633 5644 5655 5664 5673 5681 5688 5694 5699 5703 5707 5710 5712 5714 5715 5717 5719 5721 5722 5724 5726 5728 5730 5733 5735 5737 5739 5741 5743 5745 5747 5749
5567 5572 5578 5587 5596 5607 5619 5631 5643 5653 5662 5671 5678 5684 5690 5695 5699 5702 5705 5708 5709 5711 5713 5715 5717 5719 5721 5723 5725 5727 5730 5732 5733 5736 5738 5740 5742 5744
5558 5562 5568 5576 5585 5596 5608 5620 5631 5642 5652 5661 5669 5676 5682 5687 5691 5695 5698 5701 5704 5706 5708 5710 5712 5715 5717 5718 5720 5723 5725 5727 5729 5731 5733 5735 5737 5739
5550 5554 5559 5567 5576 5587 5598 5610 5621 5632 5643 5652 5661 5668 5675 5680 5684 5688 5692 5695 5698 5701 5703 5705 5707 5710 5712 5714 5716 5718 5720 5723 5725 5727 5729 5731 5733 5735
5543 5547 5552 5559 5568 5579 5590 5601 5612 5624 5634 5644 5653 5661 5668 5673 5678 5682 5686 5689 5692 5695 5698 5700 5703 5705 5708 5710 5712 5714 5717 5719 5721 5724 5726 5728 5731 5733
5537 5541 5547 5553 5561 5572 5583 5594 5605 5617 5627 5637 5646 5654 5661 5666 5671 5676 5681 5684 5687 5690 5693 5696 5699 5702 5704 5707 5709 5711 5714 5716 5719 5721 5724 5726 5728 5730
5532 5537 5542 5548 5555 5565 5577 5588 5599 5611 5621 5631 5640 5648 5655 5661 5666 5670 5675 5679 5683 5686 5689 5692 5695 5698 5701 5703 5706 5709 5711 5714 5716 5719 5721 5723 5725 5727
5528 5532 5537 5543 5551 5561 5572 5584 5595 5606 5617 5626 5635 5643 5649 5655 5661 5666 5670 5674 5678 5681 5685 5688 5691 5694 5697 5700 5704 5706 5709 5712 5714 5716 5719 5720 5722 5723
5524 5529 5534 5540 5549 5558 5569 5581 5592 5603 5614 5623 5631 5638 5645 5651 5656 5661 5666 5670 5674 5678 5681 5685 5688 5691 5694 5698 5701 5704 5707 5709 5711 5713 5715 5717 5718 5719
5521 5526 5532 5539 5548 5558 5569 5580 5591 5601 5611 5620 5628 5635 5641 5647 5652 5657 5662 5666 5670 5674 5678 5682 5685 5689 5692 5696 5699 5701 5704 5706 5708 5710 5711 5712 5713 5713
5520 5525 5532 5540 5550 5560 5571 5581 5591 5601 5610 5618 5626 5633 5639 5644 5649 5654 5659 5663 5667 5671 5675 5679 5683 5687 5690 5693 5696 5698 5700 5702 5704 5705 5706 5707 5707 5706
5520 5527 5535 5544 5553 5563 5573 5583 5592 5602 5610 5617 5625 5631 5637 5642 5647 5652 5656 5661 5665 5669 5673 5677 5681 5684 5687 5690 5692 5695 5696 5698 5699 5699 5700 5700 5699 5698
5524 5532 5540 5549 5558 5568 5577 5586 5595 5603 5610 5617 5624 5630 5635 5640 5645 5650 5654 5659 5663 5668 5671 5675 5678 5681 5684 5687 5689 5690 5692 5692 5693 5693 5693 5692 5691 5690